Location: Mobilodge of Milpitas
(37.4530°N, 121.9125°W)
Time: 04:18:45
(UTC+00:00)

Daily predictions for brighter satellites

Satellite Brightness Start Highest point End
(mag) Time Altitude Azimuth Time Altitude Azimuth Time Altitude Azimuth
Cosmos 1603 3.7 02:27:44 10° NNW 02:33:21 65° ENE 02:38:54 10° SSE
Cosmos 2233 Rocket 4.1 02:27:14 10° S 02:33:29 90° WNW 02:39:43 10° N
SJ 16-02 3.8 02:32:07 10° SW 02:35:50 27° WNW 02:39:34 10° N
Sich 1 Rocket 4.0 02:33:40 10° SSE 02:37:52 41° E 02:42:07 10° NNE
Cosmos 1975 3.0 02:34:08 10° S 02:38:12 82° W 02:42:18 10° N
H-2A R/B 2.7 02:34:52 10° SE 02:39:13 32° ENE 02:43:40 10° N
Okean 2 3.3 02:36:04 10° N 02:40:14 71° E 02:44:22 10° SSE
Meteor 1-21 4.3 02:35:07 10° N 02:40:38 57° ENE 02:46:06 10° SSE
NOSS 2-2 (E) 3.7 02:38:08 10° SW 02:41:34 58° NW 02:45:13 10° NNE
Cosmos 1842 3.1 02:40:21 10° N 02:44:13 74° E 02:48:04 10° SSE
ATLAS 2AS CENTAUR R/B 4.2 02:42:40 10° SE 02:47:37 18° ESE 02:52:37 10° ENE
BREEZE-M DEB (TANK) 3.9 02:45:58 10° NNW 02:48:43 27° NE 02:54:11 12° E
CZ-4 R/B 1.5 02:44:42 10° SSE 02:48:55 90° E 02:53:08 10° NNW
NOSS 2-2 (D) 3.6 02:47:05 10° SW 02:50:34 61° NW 02:54:11 10° NNE
Okean 2 Rocket 3.5 02:50:00 10° SSE 02:54:10 39° E 02:58:21 10° NNE
Cosmos 1707 3.5 02:50:45 10° NNE 02:54:11 31° ENE 02:57:35 10° SE
USA 116 3.6 02:50:33 10° NNE 02:54:12 85° ESE 02:58:17 10° SSW
CENTAUR R/B 4.4 02:49:23 10° NNW 02:55:43 24° NE 03:01:27 13° E
Cosmos 1300 Rocket 4.0 02:52:26 10° SSE 02:56:32 40° E 03:00:40 10° NNE
Ariane Rocket 4.2 02:56:56 14° ESE 02:59:57 23° ENE 03:03:51 10° NNE
Okean-O 3.6 03:00:35 10° S 03:04:52 51° W 03:09:12 10° NNW
Cosmos 1437 3.1 03:02:06 10° NNW 03:05:03 58° W 03:07:58 10° S
DELTA 2 R/B (1) 3.8 03:00:04 10° WNW 03:05:33 66° SSW 03:09:53 17° ESE
YAOGAN 1 2.9 03:01:36 10° S 03:05:53 71° WSW 03:10:13 10° NNW
SJ-6B 4.3 03:08:52 17° ENE 03:08:52 17° ENE 03:11:18 10° NNE
ARGOS 3.4 03:04:15 10° SE 03:09:21 48° ENE 03:14:30 10° N
ATLAS 5 CENTAUR R/B 2.9 03:06:31 10° NW 03:10:04 85° NE 03:22:29 10° SE
In-Cosmos 22 4.4 03:05:48 10° N 03:10:50 42° ENE 03:15:54 10° SSE
SL-08 RB Rocket 4.4 03:09:03 16° SE 03:12:02 33° ENE 03:16:08 10° N
USA 186 3.0 03:14:50 23° ENE 03:14:50 23° ENE 03:17:14 10° NNE
CZ-2C R/B 3.2 03:11:38 10° S 03:16:48 81° WSW 03:22:19 10° NNW
Cosmos 2298 Rocket 3.9 03:12:20 10° S 03:17:37 71° ESE 03:22:56 10° NNE
CZ-2C R/B 3.1 03:12:26 10° NNE 03:17:37 39° E 03:22:50 10° SSE
Cosmos 1536 Rocket 4.2 03:16:59 10° N 03:21:05 36° ENE 03:22:45 26° ESE
MOS 1 Rocket 3.1 03:18:30 10° N 03:22:54 86° WNW 03:27:10 10° SSW
ISS -1.3 03:22:58 10° WNW 03:25:32 20° NNW 03:28:08 10° NNE
Cosmos 1025 Rocket 3.1 03:21:27 10° N 03:25:45 55° E 03:28:46 19° SSE
Cosmos 372 Rocket 4.5 03:20:50 10° SSW 03:26:01 63° WNW 03:31:14 10° NNE
Cosmos 2285 Rocket 4.1 03:26:23 10° S 03:32:23 49° ESE 03:38:27 10° NNE
Cosmos 1844 3.6 03:27:22 10° S 03:32:59 62° ESE 03:38:34 10° NNE
Cosmos 2151 Rocket 3.5 03:31:27 10° S 03:35:53 84° E 03:40:23 10° N
Cosmos 1844 Rocket 2.6 03:31:46 10° SSW 03:37:19 85° ESE 03:42:55 10° NNE
Cosmos 1464 Rocket 4.1 03:31:39 10° SSW 03:37:45 75° W 03:43:55 10° N
Cosmos 1867 3.6 03:33:31 10° NNW 03:39:00 83° WSW 03:42:28 23° SSE
NOSS 3-2 (A) 4.3 03:32:01 10° NNW 03:39:33 55° NE 03:43:55 29° ESE
CZ-2C R/B 1.1 03:37:45 10° W 03:41:16 52° S 03:41:25 51° S
Cosmos 2150 Rocket 4.4 03:41:26 10° SSW 03:46:45 68° WNW 03:52:11 10° NNE
Cosmos 1092 Rocket 4.3 03:42:42 10° N 03:48:32 43° ENE 03:49:45 39° ESE
MetOp-A 4.2 03:49:02 42° ESE 03:50:28 54° ENE 03:55:41 10° N
Cosmos 1125 Rocket 3.4 03:45:20 10° SSW 03:50:38 86° ESE 03:55:59 10° NNE
MOS 1 4.2 03:53:26 37° SE 03:55:42 68° ENE 04:01:22 10° N
USA 234 3.1 03:52:10 12° NE 03:58:14 67° SE 04:04:45 10° SW
DMSP B5D2-2 3.9 03:54:14 10° NNE 03:59:33 83° ESE 04:04:49 10° SSW
Cosmos 1674 3.6 04:01:10 10° N 04:03:41 39° N 04:03:41 39° N
Resurs 01 Rocket 3.5 04:14:23 19° NNE 04:14:23 19° NNE 04:15:57 10° N
NOSS 3-4 (A) 3.1 04:09:19 10° SSW 04:15:08 75° ESE 04:21:16 10° NE
NOSS 3-4 (C) 3.1 04:09:25 10° SSW 04:15:14 74° ESE 04:17:40 38° NE
NOSS 3-2 (C) 4.2 04:07:43 10° NNW 04:15:20 59° NE 04:17:16 49° E
H-2A R/B 4.0 04:14:35 10° SSW 04:18:38 25° W 04:22:46 10° NW
Cosmos 1048 Rocket 4.3 04:17:30 10° NNW 04:22:47 65° WSW 04:23:44 54° SSW
OBJECT-B 4.0 04:29:43 10° NNW 04:29:43 10° NNW 04:29:47 10° NNW
Okean 1 Rocket 3.8 04:30:29 51° WNW 04:30:29 51° WNW 04:34:34 10° N
ATLAS 2AS CENTAUR R/B 2.9 04:29:45 10° SSW 04:37:40 88° WNW 04:45:40 10° NNE
Ariane Rocket 4.2 04:37:08 31° SW 04:38:38 38° W 04:43:22 10° NNW
Milstar 3 Cent rocket 3.9 04:40:20 10° WSW 04:43:05 22° SW 04:43:05 22° SW
CENTAUR R/B 3.1 04:39:14 10° NNW 04:47:37 84° ENE 04:48:39 72° SE
Cosmos 2082 Rocket 4.4 04:45:56 10° N 04:47:12 14° NNE 04:47:12 14° NNE
Meteor 2-5 Rocket 4.2 04:47:54 10° NNW 04:52:52 58° WNW 04:52:52 58° WNW
ATLAS 3B R/B 3.8 04:49:35 10° NNW 04:54:32 33° NNE 04:54:32 33° NNE
USA 238 DEB 4.3 04:56:32 10° NW 05:03:37 53° WSW 05:04:13 52° SW
USA 238 4.3 04:56:37 10° NW 05:03:43 54° WSW 05:04:18 53° SW
USA 234 4.4 05:39:39 34° N 05:40:57 37° NNW 05:46:49 10° W
USA 267 4.5 10:06:13 10° NE 10:09:48 36° NE 10:09:48 36° NE
Cosmos 1980 Rocket 3.9 10:34:33 30° NE 10:34:33 30° NE 10:37:26 10° NNE
SL-16 R/B 4.3 10:47:26 18° ESE 10:48:38 19° E 10:52:34 10° NE
ADEOS II 4.2 10:48:33 10° N 10:50:02 19° N 10:50:02 19° N
ARIANE 5 R/B 4.2 10:50:36 10° NNE 10:53:01 28° NNE 10:53:01 28° NNE
IDEFIX/ARIANE 42P 3.7 10:57:15 10° NNE 11:00:51 41° NE 11:00:51 41° NE
SJ 16-02 4.0 11:02:55 10° NNE 11:06:02 19° ENE 11:09:07 10° ESE
H-2A R/B 4.4 11:09:13 10° ESE 11:12:39 23° ENE 11:16:10 10° NNE
Cosmos 1238 Rocket 4.2 11:09:45 10° N 11:16:15 64° E 11:17:48 48° SE
X-37B 4.1 11:23:27 12° NE 11:23:27 12° NE 11:23:49 10° NE
Lacrosse 5 3.8 11:24:36 21° NNW 11:24:36 21° NNW 11:27:19 10° NNE
Cosmos 921 Rocket 4.0 11:56:56 34° NNW 11:56:56 34° NNW 11:59:35 10° N
Cosmos 1812 3.6 11:56:57 39° N 11:56:57 39° N 11:59:29 10° N
